Time,TemperatureF,DewpointF,PressureIn,WindDirection,WindDirectionDegrees,WindSpeedMPH,WindSpeedGustMPH,Humidity,HourlyPrecipIn,Conditions,Clouds,dailyrainin,SoftwareType,DateUTC
2013-10-31 00:13:00,59.0,58.4,29.95,WSW,247,0.0,-999.0,98,-99.99,,,0.00,Acu-Link.com,2013-10-31 04:13:00,
2013-10-31 00:28:00,59.0,58.4,29.95,SW,225,0.0,-999.0,98,-99.99,,,0.00,Acu-Link.com,2013-10-31 04:28:00,
2013-10-31 00:43:00,59.5,58.9,29.94,WNW,292,0.0,-999.0,98,-99.99,,,0.00,Acu-Link.com,2013-10-31 04:43:00,
2013-10-31 00:58:00,59.7,59.1,29.94,West,270,0.0,-999.0,98,-99.99,,,0.00,Acu-Link.com,2013-10-31 04:58:00,
2013-10-31 01:14:00,59.7,59.1,29.94,West,270,0.0,-999.0,98,-99.99,,,0.00,Acu-Link.com,2013-10-31 05:14:00,
2013-10-31 01:29:00,59.7,59.1,29.93,West,270,0.0,-999.0,98,-99.99,,,0.00,Acu-Link.com,2013-10-31 05:29:00,
2013-10-31 01:44:00,59.5,58.9,29.94,West,270,0.0,-999.0,98,-99.99,,,0.00,Acu-Link.com,2013-10-31 05:44:00,
2013-10-31 01:59:00,59.4,58.8,29.93,West,270,0.0,-999.0,98,-99.99,,,0.00,Acu-Link.com,2013-10-31 05:59:00,
2013-10-31 02:14:00,59.4,58.8,29.93,West,270,0.0,-999.0,98,-99.99,,,0.00,Acu-Link.com,2013-10-31 06:14:00,
2013-10-31 02:29:00,59.5,58.9,29.93,West,270,0.0,-999.0,98,-99.99,,,0.00,Acu-Link.com,2013-10-31 06:29:00,
2013-10-31 02:44:00,59.7,59.1,29.93,West,270,0.0,-999.0,98,-99.99,,,0.00,Acu-Link.com,2013-10-31 06:44:00,
2013-10-31 03:00:00,59.9,59.3,29.92,WNW,292,0.0,-999.0,98,-99.99,,,0.00,Acu-Link.com,2013-10-31 07:00:00,
2013-10-31 03:16:00,59.9,59.3,29.92,WNW,292,0.0,-999.0,98,-99.99,,,0.00,Acu-Link.com,2013-10-31 07:16:00,
2013-10-31 03:31:00,59.9,59.3,29.92,NW,315,0.0,-999.0,98,-99.99,,,0.00,Acu-Link.com,2013-10-31 07:31:00,
2013-10-31 03:46:00,59.7,59.1,29.90,NW,315,0.0,-999.0,98,-99.99,,,0.00,Acu-Link.com,2013-10-31 07:46:00,
2013-10-31 04:01:00,59.5,58.9,29.89,ESE,112,0.0,-999.0,98,-99.99,,,0.00,Acu-Link.com,2013-10-31 08:01:00,
2013-10-31 04:16:00,59.5,58.9,29.89,West,270,0.0,-999.0,98,-99.99,,,0.00,Acu-Link.com,2013-10-31 08:16:00,
2013-10-31 04:32:00,59.5,58.9,29.90,WNW,292,0.0,-999.0,98,-99.99,,,0.00,Acu-Link.com,2013-10-31 08:32:00,
2013-10-31 04:47:00,59.5,58.9,29.90,West,270,0.0,-999.0,98,-99.99,,,0.00,Acu-Link.com,2013-10-31 08:47:00,
2013-10-31 05:02:00,59.4,58.8,29.89,West,270,0.0,-999.0,98,-99.99,,,0.00,Acu-Link.com,2013-10-31 09:02:00,
2013-10-31 05:17:00,59.4,58.8,29.89,West,270,0.0,-999.0,98,-99.99,,,0.00,Acu-Link.com,2013-10-31 09:17:00,
2013-10-31 05:32:00,59.4,58.8,29.89,West,270,0.0,-999.0,98,-99.99,,,0.00,Acu-Link.com,2013-10-31 09:32:00,
2013-10-31 05:47:00,59.4,58.8,29.89,NNW,337,0.0,-999.0,98,-99.99,,,0.00,Acu-Link.com,2013-10-31 09:47:00,
2013-10-31 06:03:00,59.2,58.6,29.90,NNW,337,0.0,-999.0,98,-99.99,,,0.00,Acu-Link.com,2013-10-31 10:03:00,
2013-10-31 06:18:00,59.0,58.4,29.90,SSW,202,0.0,-999.0,98,-99.99,,,0.00,Acu-Link.com,2013-10-31 10:18:00,
2013-10-31 06:33:00,59.0,58.4,29.90,SSW,202,0.0,-999.0,98,-99.99,,,0.00,Acu-Link.com,2013-10-31 10:33:00,
2013-10-31 06:48:00,59.0,58.4,29.90,West,270,0.0,-999.0,98,-99.99,,,0.00,Acu-Link.com,2013-10-31 10:48:00,
2013-10-31 07:03:00,59.0,58.4,29.89,WSW,247,0.0,-999.0,98,-99.99,,,0.00,Acu-Link.com,2013-10-31 11:03:00,
2013-10-31 07:19:00,59.2,58.6,29.89,SSE,157,0.0,-999.0,98,-99.99,,,0.00,Acu-Link.com,2013-10-31 11:19:00,
2013-10-31 07:34:00,59.5,58.9,29.88,SSE,157,0.0,-999.0,98,-99.99,,,0.00,Acu-Link.com,2013-10-31 11:34:00,
2013-10-31 07:49:00,59.5,58.9,29.87,West,270,0.0,-999.0,98,-99.99,,,0.00,Acu-Link.com,2013-10-31 11:49:00,
2013-10-31 08:04:00,59.5,58.9,29.86,North,0,0.0,-999.0,98,-99.99,,,0.00,Acu-Link.com,2013-10-31 12:04:00,
2013-10-31 08:19:00,59.5,58.9,29.86,ESE,112,0.0,-999.0,98,-99.99,,,0.00,Acu-Link.com,2013-10-31 12:19:00,
2013-10-31 08:35:00,59.5,58.9,29.86,NNE,22,0.0,-999.0,98,-99.99,,,0.00,Acu-Link.com,2013-10-31 12:35:00,
2013-10-31 08:50:00,59.9,59.3,29.86,WNW,292,0.0,-999.0,98,-99.99,,,0.00,Acu-Link.com,2013-10-31 12:50:00,
2013-10-31 09:05:00,60.6,60.0,29.87,SW,225,0.0,-999.0,98,-99.99,,,0.00,Acu-Link.com,2013-10-31 13:05:00,
2013-10-31 09:20:00,61.2,60.6,29.86,South,180,0.0,-999.0,98,-99.99,,,0.00,Acu-Link.com,2013-10-31 13:20:00,
2013-10-31 09:36:00,61.5,60.9,29.87,WSW,247,0.0,-999.0,98,-99.99,,,0.00,Acu-Link.com,2013-10-31 13:36:00,
2013-10-31 09:51:00,61.7,61.1,29.86,ESE,112,0.0,-999.0,98,-99.99,,,0.00,Acu-Link.com,2013-10-31 13:51:00,
2013-10-31 10:06:00,62.4,61.8,29.86,West,270,0.0,-999.0,98,-99.99,,,0.00,Acu-Link.com,2013-10-31 14:06:00,
2013-10-31 10:21:00,63.0,62.4,29.85,ENE,67,1.7,-999.0,98,-99.99,,,0.00,Acu-Link.com,2013-10-31 14:21:00,
2013-10-31 10:37:00,64.4,63.8,29.85,SW,225,0.0,-999.0,98,-99.99,,,0.00,Acu-Link.com,2013-10-31 14:37:00,
2013-10-31 10:52:00,66.2,65.6,29.85,SE,135,1.7,-999.0,98,-99.99,,,0.00,Acu-Link.com,2013-10-31 14:52:00,
2013-10-31 11:07:00,66.2,65.6,29.84,East,90,2.2,-999.0,98,-99.99,,,0.00,Acu-Link.com,2013-10-31 15:07:00,
2013-10-31 11:22:00,65.7,65.1,29.84,WNW,292,2.7,-999.0,98,-99.99,,,0.00,Acu-Link.com,2013-10-31 15:22:00,
2013-10-31 11:38:00,66.0,65.4,29.82,SSE,157,3.2,-999.0,98,-99.99,,,0.00,Acu-Link.com,2013-10-31 15:38:00,
2013-10-31 11:53:00,66.9,66.3,29.82,South,180,1.1,-999.0,98,-99.99,,,0.00,Acu-Link.com,2013-10-31 15:53:00,
2013-10-31 12:08:00,67.8,67.2,29.83,ESE,112,2.2,-999.0,98,-99.99,,,0.00,Acu-Link.com,2013-10-31 16:08:00,
2013-10-31 12:23:00,68.2,67.6,29.83,ESE,112,2.7,-999.0,98,-99.99,,,0.00,Acu-Link.com,2013-10-31 16:23:00,
2013-10-31 12:39:00,70.0,69.4,29.82,SSE,157,3.7,-999.0,98,-99.99,,,0.00,Acu-Link.com,2013-10-31 16:39:00,
2013-10-31 12:54:00,69.1,68.5,29.82,NNE,22,4.7,-999.0,98,-99.99,,,0.00,Acu-Link.com,2013-10-31 16:54:00,
2013-10-31 13:09:00,69.4,68.8,29.79,SSE,157,0.0,-999.0,98,-99.99,,,0.00,Acu-Link.com,2013-10-31 17:09:00,
2013-10-31 13:25:00,71.2,70.6,29.77,SE,135,6.8,-999.0,98,-99.99,,,0.00,Acu-Link.com,2013-10-31 17:25:00,
2013-10-31 13:40:00,71.4,70.8,29.76,SSE,157,4.2,-999.0,98,-99.99,,,0.00,Acu-Link.com,2013-10-31 17:40:00,
2013-10-31 13:55:00,70.7,70.1,29.75,SSE,157,3.7,-999.0,98,-99.99,,,0.00,Acu-Link.com,2013-10-31 17:55:00,
2013-10-31 14:10:00,70.9,70.3,29.74,East,90,1.7,-999.0,98,-99.99,,,0.00,Acu-Link.com,2013-10-31 18:10:00,
2013-10-31 14:25:00,71.4,70.8,29.73,SW,225,3.2,-999.0,98,-99.99,,,0.00,Acu-Link.com,2013-10-31 18:25:00,
2013-10-31 14:40:00,71.1,70.5,29.73,ESE,112,4.2,-999.0,98,-99.99,,,0.00,Acu-Link.com,2013-10-31 18:40:00,
2013-10-31 14:56:00,70.5,69.9,29.72,ESE,112,2.2,-999.0,98,-99.99,,,0.00,Acu-Link.com,2013-10-31 18:56:00,
2013-10-31 15:11:00,70.7,70.1,29.72,ESE,112,3.2,-999.0,98,-99.99,,,0.00,Acu-Link.com,2013-10-31 19:11:00,
2013-10-31 15:26:00,70.9,70.3,29.70,East,90,4.7,-999.0,98,-99.99,,,0.00,Acu-Link.com,2013-10-31 19:26:00,
2013-10-31 15:41:00,71.6,71.0,29.68,South,180,2.7,-999.0,98,-99.99,,,0.00,Acu-Link.com,2013-10-31 19:41:00,
2013-10-31 15:57:00,72.1,71.5,29.68,NNE,22,3.7,-999.0,98,-99.99,,,0.00,Acu-Link.com,2013-10-31 19:57:00,
2013-10-31 16:12:00,72.1,71.5,29.67,NW,315,2.7,-999.0,98,-99.99,,,0.00,Acu-Link.com,2013-10-31 20:12:00,
2013-10-31 16:27:00,72.1,71.5,29.66,ESE,112,2.2,-999.0,98,-99.99,,,0.00,Acu-Link.com,2013-10-31 20:27:00,
2013-10-31 16:43:00,72.5,71.9,29.65,ESE,112,4.2,-999.0,98,-99.99,,,0.00,Acu-Link.com,2013-10-31 20:43:00,
2013-10-31 16:58:00,72.5,71.9,29.66,East,90,2.2,-999.0,98,-99.99,,,0.00,Acu-Link.com,2013-10-31 20:58:00,
2013-10-31 17:13:00,72.3,71.7,29.65,SSE,157,4.7,-999.0,98,-99.99,,,0.00,Acu-Link.com,2013-10-31 21:13:00,
2013-10-31 17:28:00,71.6,71.0,29.64,South,180,1.7,-999.0,98,-99.99,,,0.00,Acu-Link.com,2013-10-31 21:28:00,
2013-10-31 17:43:00,71.1,70.5,29.64,SE,135,2.2,-999.0,98,-99.99,,,0.00,Acu-Link.com,2013-10-31 21:43:00,
2013-10-31 17:58:00,70.3,69.7,29.63,SSW,202,2.2,-999.0,98,-99.99,,,0.00,Acu-Link.com,2013-10-31 21:58:00,
2013-10-31 18:14:00,70.2,69.6,29.63,WNW,292,2.2,-999.0,98,-99.99,,,0.00,Acu-Link.com,2013-10-31 22:14:00,
2013-10-31 18:29:00,70.5,69.9,29.62,ENE,67,2.7,-999.0,98,-99.99,,,0.00,Acu-Link.com,2013-10-31 22:29:00,
2013-10-31 18:44:00,70.7,70.1,29.62,ENE,67,3.2,-999.0,98,-99.99,,,0.00,Acu-Link.com,2013-10-31 22:44:00,
2013-10-31 18:59:00,70.5,69.9,29.62,NNE,22,6.8,-999.0,98,-99.99,,,0.00,Acu-Link.com,2013-10-31 22:59:00,
2013-10-31 19:14:00,70.2,69.6,29.62,SW,225,1.1,-999.0,98,-99.99,,,0.00,Acu-Link.com,2013-10-31 23:14:00,
2013-10-31 19:29:00,70.2,69.6,29.62,ENE,67,2.2,-999.0,98,-99.99,,,0.00,Acu-Link.com,2013-10-31 23:29:00,
2013-10-31 19:44:00,70.2,69.6,29.62,SW,225,5.3,-999.0,98,-99.99,,,0.00,Acu-Link.com,2013-10-31 23:44:00,
2013-10-31 19:59:00,69.6,69.0,29.62,SSW,202,2.2,-999.0,98,-99.99,,,0.00,Acu-Link.com,2013-10-31 23:59:00,
2013-10-31 20:15:00,68.5,67.9,29.62,ESE,112,3.7,-999.0,98,-99.99,,,0.00,Acu-Link.com,2013-11-01 00:15:00,
2013-10-31 20:30:00,68.2,67.6,29.61,South,180,2.2,-999.0,98,-99.99,,,0.00,Acu-Link.com,2013-11-01 00:30:00,
2013-10-31 20:45:00,68.0,67.4,29.61,South,180,3.7,-999.0,98,-99.99,,,0.00,Acu-Link.com,2013-11-01 00:45:00,
2013-10-31 21:00:00,67.8,67.2,29.60,SSW,202,4.7,-999.0,98,-99.99,,,0.00,Acu-Link.com,2013-11-01 01:00:00,
2013-10-31 21:15:00,67.5,66.9,29.59,WNW,292,1.7,-999.0,98,-99.99,,,0.01,Acu-Link.com,2013-11-01 01:15:00,
2013-10-31 21:30:00,66.9,66.3,29.58,SSW,202,2.7,-999.0,98,-99.99,,,0.03,Acu-Link.com,2013-11-01 01:30:00,
2013-10-31 21:46:00,66.9,66.3,29.53,SW,225,2.7,-999.0,98,-99.99,,,0.04,Acu-Link.com,2013-11-01 01:46:00,
2013-10-31 22:01:00,67.1,66.5,29.55,South,180,2.2,-999.0,98,-99.99,,,0.04,Acu-Link.com,2013-11-01 02:01:00,
2013-10-31 22:16:00,67.1,66.5,29.53,SSW,202,1.7,-999.0,98,-99.99,,,0.04,Acu-Link.com,2013-11-01 02:16:00,
2013-10-31 22:31:00,67.3,66.7,29.55,SSE,157,6.3,-999.0,98,-99.99,,,0.04,Acu-Link.com,2013-11-01 02:31:00,
2013-10-31 22:46:00,67.5,66.9,29.56,WNW,292,2.7,-999.0,98,-99.99,,,0.04,Acu-Link.com,2013-11-01 02:46:00,
2013-10-31 23:02:00,67.8,67.2,29.55,WNW,292,3.2,-999.0,98,-99.99,,,0.04,Acu-Link.com,2013-11-01 03:02:00,
2013-10-31 23:17:00,67.8,67.2,29.56,ENE,67,2.2,-999.0,98,-99.99,,,0.04,Acu-Link.com,2013-11-01 03:17:00,
2013-10-31 23:32:00,68.2,67.6,29.55,SE,135,2.7,-999.0,98,-99.99,,,0.04,Acu-Link.com,2013-11-01 03:32:00,
2013-10-31 23:47:00,68.4,67.8,29.56,NW,315,3.2,-999.0,98,-99.99,,,0.04,Acu-Link.com,2013-11-01 03:47:00,